Simultaneous Nadir Overpasses (SNOs) Predictions

Prediction of SNOs between NOAA-19 and TERRA Satellite Orbit:

Table of predicted SNOs for the next 14.0 days since TLE Epoch: 4/14/2012
Index Date (NOAA-19) Time (NOAA-19) NOAA-19 Lat,Lon Date (TERRA) Time (TERRA) TERRA Lat,Lon Distance(km) Time Diff (sec)
1 04/14/2012 22:05:43 68.94,-152.14 04/14/2012 22:05:54 68.97,-152.12 3.33 11
2 04/14/2012 22:56:38 -68.83, 15.27 04/14/2012 22:55:25 -68.80, 15.30 2.99 73
3 04/17/2012 01:59:31 -69.51, -31.36 04/17/2012 02:00:41 -69.38, -30.31 43.21 70
4 04/17/2012 02:50:28 68.90, 136.73 04/17/2012 02:50:15 68.89, 136.70 1.41 13
5 04/17/2012 03:41:07 -67.95, -54.76 04/17/2012 03:39:59 -68.01, -56.75 83.27 68
6 04/19/2012 06:44:07 -69.01,-101.83 04/19/2012 06:45:07 -69.02,-101.86 2.42 60
7 04/19/2012 07:35:13 68.86, 65.59 04/19/2012 07:34:35 68.86, 65.57 0.93 38
8 04/21/2012 11:28:52 -68.98,-172.97 04/21/2012 11:29:27 -68.98,-172.99 1.06 35
9 04/21/2012 12:19:58 68.82, -5.54 04/21/2012 12:18:55 68.81, -5.56 0.95 63
10 04/23/2012 15:22:57 69.80, -52.62 04/23/2012 15:24:05 69.70, -50.76 72.56 68
11 04/23/2012 16:13:37 -68.95, 115.88 04/23/2012 16:13:47 -68.93, 115.86 1.74 10
12 04/23/2012 17:04:33 68.25, -75.96 04/23/2012 17:03:23 68.31, -77.26 53.77 70
13 04/25/2012 20:07:28 69.03,-122.68 04/25/2012 20:08:36 69.02,-122.73 1.99 68
14 04/25/2012 20:58:22 -68.91, 44.74 04/25/2012 20:58:06 -68.93, 44.77 1.98 16
15 04/28/2012 00:52:13 68.99, 166.18 04/28/2012 00:52:55 69.00, 166.16 1.56
